﻿測定場所 (Monitoring sites),日付 (Measurement date),時間 (Measurement time),線量率 最大値 (max) μGy/h,線量率 最小値 (min) μGy/h,線量率 平均値 (average) μGy/h,
八王子 (Hachioji),2019-03-10,23:01～24:00,0.0424,0.0359,0.0383,
八王子 (Hachioji),2019-03-10,22:01～23:00,0.0403,0.0344,0.0372,
八王子 (Hachioji),2019-03-10,21:01～22:00,0.0393,0.0350,0.0370,
八王子 (Hachioji),2019-03-10,20:01～21:00,0.0414,0.0352,0.0374,
八王子 (Hachioji),2019-03-10,19:01～20:00,0.0394,0.0343,0.0364,
八王子 (Hachioji),2019-03-10,18:01～19:00,0.0369,0.0289,0.0336,
八王子 (Hachioji),2019-03-10,17:01～18:00,0.0331,0.0280,0.0303,
八王子 (Hachioji),2019-03-10,16:01～17:00,0.0329,0.0281,0.0302,
八王子 (Hachioji),2019-03-10,15:01～16:00,0.0322,0.0280,0.0304,
八王子 (Hachioji),2019-03-10,14:01～15:00,0.0324,0.0288,0.0306,
八王子 (Hachioji),2019-03-10,13:01～14:00,0.0326,0.0288,0.0308,
八王子 (Hachioji),2019-03-10,12:01～13:00,0.0329,0.0293,0.0312,
八王子 (Hachioji),2019-03-10,11:01～12:00,0.0350,0.0296,0.0315,
八王子 (Hachioji),2019-03-10,10:01～11:00,0.0339,0.0297,0.0318,
八王子 (Hachioji),2019-03-10,09:01～10:00,0.0341,0.0295,0.0320,
八王子 (Hachioji),2019-03-10,08:01～09:00,0.0342,0.0297,0.0324,
八王子 (Hachioji),2019-03-10,07:01～08:00,0.0335,0.0300,0.0316,
八王子 (Hachioji),2019-03-10,06:01～07:00,0.0332,0.0301,0.0316,
八王子 (Hachioji),2019-03-10,05:01～06:00,0.0345,0.0298,0.0316,
八王子 (Hachioji),2019-03-10,04:01～05:00,0.0328,0.0290,0.0310,
八王子 (Hachioji),2019-03-10,03:01～04:00,0.0331,0.0292,0.0306,
八王子 (Hachioji),2019-03-10,02:01～03:00,0.0343,0.0281,0.0306,
八王子 (Hachioji),2019-03-10,01:01～02:00,0.0325,0.0289,0.0306,
八王子 (Hachioji),2019-03-10,00:01～01:00,0.0325,0.0287,0.0305,
八王子 (Hachioji),2019-03-09,23:01～24:00,0.0324,0.0288,0.0307,
八王子 (Hachioji),2019-03-09,22:01～23:00,0.0323,0.0279,0.0305,
八王子 (Hachioji),2019-03-09,21:01～22:00,0.0325,0.0286,0.0308,
八王子 (Hachioji),2019-03-09,20:01～21:00,0.0325,0.0283,0.0305,
八王子 (Hachioji),2019-03-09,19:01～20:00,0.0327,0.0291,0.0307,
八王子 (Hachioji),2019-03-09,18:01～19:00,0.0324,0.0288,0.0307,
八王子 (Hachioji),2019-03-09,17:01～18:00,0.0321,0.0290,0.0303,
八王子 (Hachioji),2019-03-09,16:01～17:00,0.0327,0.0282,0.0306,
八王子 (Hachioji),2019-03-09,15:01～16:00,0.0330,0.0292,0.0308,
八王子 (Hachioji),2019-03-09,14:01～15:00,0.0325,0.0289,0.0307,
八王子 (Hachioji),2019-03-09,13:01～14:00,0.0334,0.0289,0.0308,
八王子 (Hachioji),2019-03-09,12:01～13:00,0.0326,0.0293,0.0310,
八王子 (Hachioji),2019-03-09,11:01～12:00,0.0333,0.0287,0.0307,
八王子 (Hachioji),2019-03-09,10:01～11:00,0.0338,0.0289,0.0311,
八王子 (Hachioji),2019-03-09,09:01～10:00,0.0347,0.0287,0.0311,
八王子 (Hachioji),2019-03-09,08:01～09:00,0.0333,0.0291,0.0312,
八王子 (Hachioji),2019-03-09,07:01～08:00,0.0340,0.0294,0.0313,
八王子 (Hachioji),2019-03-09,06:01～07:00,0.0336,0.0298,0.0313,
八王子 (Hachioji),2019-03-09,05:01～06:00,0.0331,0.0299,0.0314,
八王子 (Hachioji),2019-03-09,04:01～05:00,0.0341,0.0288,0.0314,
八王子 (Hachioji),2019-03-09,03:01～04:00,0.0343,0.0299,0.0315,
八王子 (Hachioji),2019-03-09,02:01～03:00,0.0330,0.0285,0.0311,
八王子 (Hachioji),2019-03-09,01:01～02:00,0.0338,0.0295,0.0313,
八王子 (Hachioji),2019-03-09,00:01～01:00,0.0335,0.0296,0.0313,
八王子 (Hachioji),2019-03-08,23:01～24:00,0.0338,0.0290,0.0311,
八王子 (Hachioji),2019-03-08,22:01～23:00,0.0325,0.0276,0.0308,
八王子 (Hachioji),2019-03-08,21:01～22:00,0.0327,0.0285,0.0306,
八王子 (Hachioji),2019-03-08,20:01～21:00,0.0323,0.0281,0.0305,
八王子 (Hachioji),2019-03-08,19:01～20:00,0.0322,0.0291,0.0308,
八王子 (Hachioji),2019-03-08,18:01～19:00,0.0320,0.0292,0.0305,
八王子 (Hachioji),2019-03-08,17:01～18:00,0.0323,0.0283,0.0304,
八王子 (Hachioji),2019-03-08,16:01～17:00,0.0327,0.0283,0.0306,
八王子 (Hachioji),2019-03-08,15:01～16:00,0.0330,0.0286,0.0304,
八王子 (Hachioji),2019-03-08,14:01～15:00,0.0328,0.0287,0.0306,
八王子 (Hachioji),2019-03-08,13:01～14:00,0.0335,0.0285,0.0306,
八王子 (Hachioji),2019-03-08,12:01～13:00,0.0326,0.0294,0.0310,
八王子 (Hachioji),2019-03-08,11:01～12:00,0.0324,0.0287,0.0308,
八王子 (Hachioji),2019-03-08,10:01～11:00,0.0326,0.0292,0.0309,
八王子 (Hachioji),2019-03-08,09:01～10:00,0.0327,0.0283,0.0307,
八王子 (Hachioji),2019-03-08,08:01～09:00,0.0324,0.0290,0.0305,
八王子 (Hachioji),2019-03-08,07:01～08:00,0.0322,0.0291,0.0306,
八王子 (Hachioji),2019-03-08,06:01～07:00,0.0325,0.0284,0.0303,
八王子 (Hachioji),2019-03-08,05:01～06:00,0.0325,0.0289,0.0306,
八王子 (Hachioji),2019-03-08,04:01～05:00,0.0326,0.0289,0.0304,
八王子 (Hachioji),2019-03-08,03:01～04:00,0.0326,0.0290,0.0305,
八王子 (Hachioji),2019-03-08,02:01～03:00,0.0325,0.0291,0.0306,
八王子 (Hachioji),2019-03-08,01:01～02:00,0.0324,0.0282,0.0308,
八王子 (Hachioji),2019-03-08,00:01～01:00,0.0333,0.0287,0.0308,
八王子 (Hachioji),2019-03-07,23:01～24:00,0.0327,0.0292,0.0309,
八王子 (Hachioji),2019-03-07,22:01～23:00,0.0329,0.0292,0.0310,
八王子 (Hachioji),2019-03-07,21:01～22:00,0.0332,0.0289,0.0315,
八王子 (Hachioji),2019-03-07,20:01～21:00,0.0368,0.0308,0.0335,
八王子 (Hachioji),2019-03-07,19:01～20:00,0.0461,0.0342,0.0394,
八王子 (Hachioji),2019-03-07,18:01～19:00,0.0508,0.0393,0.0457,
八王子 (Hachioji),2019-03-07,17:01～18:00,0.0542,0.0365,0.0433,
八王子 (Hachioji),2019-03-07,16:01～17:00,0.0753,0.0502,0.0633,
八王子 (Hachioji),2019-03-07,15:01～16:00,0.0787,0.0572,0.0669,
八王子 (Hachioji),2019-03-07,14:01～15:00,0.0617,0.0362,0.0492,
八王子 (Hachioji),2019-03-07,13:01～14:00,0.0349,0.0297,0.0323,
八王子 (Hachioji),2019-03-07,12:01～13:00,0.0339,0.0294,0.0317,
八王子 (Hachioji),2019-03-07,11:01～12:00,0.0360,0.0304,0.0329,
八王子 (Hachioji),2019-03-07,10:01～11:00,0.0352,0.0307,0.0331,
八王子 (Hachioji),2019-03-07,09:01～10:00,0.0365,0.0305,0.0330,
八王子 (Hachioji),2019-03-07,08:01～09:00,0.0359,0.0314,0.0339,
八王子 (Hachioji),2019-03-07,07:01～08:00,0.0368,0.0323,0.0344,
八王子 (Hachioji),2019-03-07,06:01～07:00,0.0386,0.0321,0.0344,
八王子 (Hachioji),2019-03-07,05:01～06:00,0.0402,0.0339,0.0360,
八王子 (Hachioji),2019-03-07,04:01～05:00,0.0365,0.0318,0.0341,
八王子 (Hachioji),2019-03-07,03:01～04:00,0.0368,0.0335,0.0352,
八王子 (Hachioji),2019-03-07,02:01～03:00,0.0404,0.0348,0.0369,
八王子 (Hachioji),2019-03-07,01:01～02:00,0.0400,0.0351,0.0370,
八王子 (Hachioji),2019-03-07,00:01～01:00,0.0420,0.0352,0.0383,
八王子 (Hachioji),2019-03-06,23:01～24:00,0.0428,0.0361,0.0386,
八王子 (Hachioji),2019-03-06,22:01～23:00,0.0406,0.0326,0.0357,
八王子 (Hachioji),2019-03-06,21:01～22:00,0.0360,0.0301,0.0326,
八王子 (Hachioji),2019-03-06,20:01～21:00,0.0333,0.0294,0.0313,
八王子 (Hachioji),2019-03-06,19:01～20:00,0.0336,0.0296,0.0313,
八王子 (Hachioji),2019-03-06,18:01～19:00,0.0328,0.0288,0.0308,
八王子 (Hachioji),2019-03-06,17:01～18:00,0.0326,0.0289,0.0308,
八王子 (Hachioji),2019-03-06,16:01～17:00,0.0323,0.0288,0.0308,
八王子 (Hachioji),2019-03-06,15:01～16:00,0.0339,0.0284,0.0311,
八王子 (Hachioji),2019-03-06,14:01～15:00,0.0338,0.0287,0.0314,
八王子 (Hachioji),2019-03-06,13:01～14:00,0.0333,0.0290,0.0312,
八王子 (Hachioji),2019-03-06,12:01～13:00,0.0336,0.0294,0.0312,
八王子 (Hachioji),2019-03-06,11:01～12:00,0.0328,0.0292,0.0311,
八王子 (Hachioji),2019-03-06,10:01～11:00,0.0341,0.0287,0.0312,
八王子 (Hachioji),2019-03-06,09:01～10:00,0.0334,0.0291,0.0314,
八王子 (Hachioji),2019-03-06,08:01～09:00,0.0334,0.0291,0.0314,
八王子 (Hachioji),2019-03-06,07:01～08:00,0.0339,0.0292,0.0315,
八王子 (Hachioji),2019-03-06,06:01～07:00,0.0333,0.0294,0.0315,
八王子 (Hachioji),2019-03-06,05:01～06:00,0.0342,0.0305,0.0321,
八王子 (Hachioji),2019-03-06,04:01～05:00,0.0329,0.0285,0.0313,
八王子 (Hachioji),2019-03-06,03:01～04:00,0.0329,0.0291,0.0311,
八王子 (Hachioji),2019-03-06,02:01～03:00,0.0331,0.0286,0.0311,
八王子 (Hachioji),2019-03-06,01:01～02:00,0.0344,0.0304,0.0323,
八王子 (Hachioji),2019-03-06,00:01～01:00,0.0374,0.0324,0.0349,
八王子 (Hachioji),2019-03-05,23:01～24:00,0.0369,0.0302,0.0335,
八王子 (Hachioji),2019-03-05,22:01～23:00,0.0339,0.0290,0.0309,
八王子 (Hachioji),2019-03-05,21:01～22:00,0.0323,0.0288,0.0308,
八王子 (Hachioji),2019-03-05,20:01～21:00,0.0330,0.0294,0.0311,
八王子 (Hachioji),2019-03-05,19:01～20:00,0.0332,0.0289,0.0308,
八王子 (Hachioji),2019-03-05,18:01～19:00,0.0331,0.0291,0.0307,
八王子 (Hachioji),2019-03-05,17:01～18:00,0.0325,0.0286,0.0308,
八王子 (Hachioji),2019-03-05,16:01～17:00,0.0334,0.0285,0.0310,
八王子 (Hachioji),2019-03-05,15:01～16:00,0.0349,0.0287,0.0312,
八王子 (Hachioji),2019-03-05,14:01～15:00,0.0329,0.0295,0.0310,
八王子 (Hachioji),2019-03-05,13:01～14:00,0.0326,0.0282,0.0307,
八王子 (Hachioji),2019-03-05,12:01～13:00,0.0329,0.0286,0.0307,
八王子 (Hachioji),2019-03-05,11:01～12:00,0.0335,0.0298,0.0313,
八王子 (Hachioji),2019-03-05,10:01～11:00,0.0328,0.0293,0.0310,
八王子 (Hachioji),2019-03-05,09:01～10:00,0.0335,0.0292,0.0310,
八王子 (Hachioji),2019-03-05,08:01～09:00,0.0330,0.0283,0.0307,
八王子 (Hachioji),2019-03-05,07:01～08:00,0.0330,0.0290,0.0309,
八王子 (Hachioji),2019-03-05,06:01～07:00,0.0335,0.0291,0.0307,
八王子 (Hachioji),2019-03-05,05:01～06:00,0.0326,0.0290,0.0306,
八王子 (Hachioji),2019-03-05,04:01～05:00,0.0325,0.0289,0.0307,
八王子 (Hachioji),2019-03-05,03:01～04:00,0.0336,0.0290,0.0313,
八王子 (Hachioji),2019-03-05,02:01～03:00,0.0369,0.0305,0.0332,
八王子 (Hachioji),2019-03-05,01:01～02:00,0.0437,0.0339,0.0373,
八王子 (Hachioji),2019-03-05,00:01～01:00,0.0433,0.0357,0.0391,
八王子 (Hachioji),2019-03-04,23:01～24:00,0.0395,0.0334,0.0358,
八王子 (Hachioji),2019-03-04,22:01～23:00,0.0371,0.0324,0.0346,
八王子 (Hachioji),2019-03-04,21:01～22:00,0.0408,0.0324,0.0360,
八王子 (Hachioji),2019-03-04,20:01～21:00,0.0440,0.0342,0.0378,
八王子 (Hachioji),2019-03-04,19:01～20:00,0.0378,0.0333,0.0351,
八王子 (Hachioji),2019-03-04,18:01～19:00,0.0399,0.0342,0.0360,
八王子 (Hachioji),2019-03-04,17:01～18:00,0.0382,0.0327,0.0356,
八王子 (Hachioji),2019-03-04,16:01～17:00,0.0388,0.0332,0.0356,
八王子 (Hachioji),2019-03-04,15:01～16:00,0.0371,0.0314,0.0337,
八王子 (Hachioji),2019-03-04,14:01～15:00,0.0376,0.0318,0.0347,
八王子 (Hachioji),2019-03-04,13:01～14:00,0.0447,0.0358,0.0407,
八王子 (Hachioji),2019-03-04,12:01～13:00,0.0473,0.0399,0.0441,
八王子 (Hachioji),2019-03-04,11:01～12:00,0.0483,0.0407,0.0438,
八王子 (Hachioji),2019-03-04,10:01～11:00,0.0462,0.0390,0.0423,
八王子 (Hachioji),2019-03-04,09:01～10:00,0.0443,0.0362,0.0403,
八王子 (Hachioji),2019-03-04,08:01～09:00,0.0465,0.0387,0.0425,
八王子 (Hachioji),2019-03-04,07:01～08:00,0.0468,0.0394,0.0426,
八王子 (Hachioji),2019-03-04,06:01～07:00,0.0461,0.0396,0.0427,
八王子 (Hachioji),2019-03-04,05:01～06:00,0.0474,0.0410,0.0440,
八王子 (Hachioji),2019-03-04,04:01～05:00,0.0464,0.0398,0.0432,
八王子 (Hachioji),2019-03-04,03:01～04:00,0.0481,0.0406,0.0441,
八王子 (Hachioji),2019-03-04,02:01～03:00,0.0467,0.0403,0.0443,
八王子 (Hachioji),2019-03-04,01:01～02:00,0.0462,0.0390,0.0424,
八王子 (Hachioji),2019-03-04,00:01～01:00,0.0461,0.0368,0.0408,
